SWARM B (39451 NORAD) Tracking and Keplerian Element Data

This shows tracking and keplerian element data for the satellite.

Feedback or suggestion? Click here.




ElementValue
Catalog39451
NameSWARM B
Epoch Orbit24344
Epoch Day198.90856619
Epoch Year2018
RAAN129.6581
Inclination87.7548
Eccentricity0.0003038
Argument of Perigee62.6196
Mean Anonmoly297.5358
Mean Motion15.21352648
Decay Rate3.31E-06
L11 39451U 13067A 18198.90856619 .00000331 00000-0 13204-4 0 9991
L22 39451 87.7548 129.6581 0003038 62.6196 297.5358 15.21352648243442

Live tracking and technical data element details for SWARM B (NORAD 39451). SWARM B can be tracked NOW for your location showing map with azimuth and elevation plus other details from your city location.

Track the satellite on the map from your city or location and see movement details for azimuth, elevation, latitude, longitude, range, height, and movement on the map or in text.







IsCatalogInMostPopularTable: catalog: 39451, numindb: 51
Update: records affected: 1



GetName: 39451 SWARM B

Hit Count: updated at: Thu, 19 Jul 2018 03:47:43 GMT